Find Starlink 31428

NORAD ID: 59367 Int'l Des: 2024-060 Owner: SPXS Country: US Constellation: starlink operational
LEOCIRCULAR

当前视图

正在加载3D地球...

About Starlink 31428

Starlink 31428 (NORAD 59367) is a starlink constellation satellite (v2 mini) launched Mar 31, 2024 by SPXS of US. It operates in LEO, CIRCULAR orbit with a mass of 730.00 kg.

关于 Starlink 31428

正在加载描述...

即将过境

Passes for default location (London). Set your location on the main map for personalized predictions.

高度历史

Loading altitude history...

两行轨道根数

1 59367U 24060V 26171.33775175 .00003502 00000-0 13676-3 0 9993
2 59367 43.0028 39.9714 0000939 55.9354 304.1587 15.27574979125769
Epoch: Jun 20, 2026 • Age: 29 hours

当前状态

高度 497.0 km
速度 7.62 km/s
星下点 -43.16°S, 168.72°W
发射日期 Mar 31, 2024
运行时间 2.2 years
类型 internet

技术详情

分类 Payload
质量 730.00 kg
干质量 700.00 kg
总质量 730.00 kg
长度 0.30 m
直径 4.10 m
跨度 29.00 m
形状 Box + pan
制造商 SPXS
平台类型 Starlink V2M
阶段状态 In Orbit
所有者/国家 SPXS/US

Most Searched